GFSCGP_500_spd_078.txt.gz
Wind_Speed
33 32 35 28 37 35 36 39 36 32 32 35 38 36 33 32 34 31 31 32 32 29 36 37 37 38 36 30 30 29 25 22 29 21 22 20 18 18 20 24 27 24 25 19
33 34 27 33 36 34 34 36 39 39 31 35 33 34 36 35 30 30 31 32 27 27 32 36 33 34 32 28 31 26 23 22 25 22 20 16 15 16 15 17 18 16 19 24
29 34 35 33 32 33 34 32 32 33 34 33 35 35 36 31 28 30 28 27 24 26 31 33 33 33 30 27 31 25 21 23 23 23 17 14 13 12 13 15 13 8 14 22
30 27 26 25 29 33 35 34 31 33 31 32 33 33 29 26 28 27 26 25 26 28 29 31 30 30 27 30 28 25 20 23 23 23 15 12 11 10 7 9 13 9 9 15
29 27 33 32 28 34 35 30 29 29 31 30 25 30 29 25 26 25 25 24 27 29 31 31 30 27 31 30 28 27 20 24 25 22 15 12 10 8 5 7 6 9 6 10
30 31 26 32 29 26 24 25 27 28 26 28 19 25 29 25 20 20 25 27 27 25 29 30 28 32 29 31 29 23 22 25 26 20 16 12 10 7 2 3 4 4 4 9
27 31 32 26 26 24 24 23 23 25 26 23 21 26 23 22 17 18 24 27 25 20 29 31 32 33 28 28 26 23 24 26 25 21 16 13 9 6 1 1 3 6 4 5
28 27 27 27 24 23 22 23 22 25 25 21 22 23 25 18 15 24 28 28 28 26 30 31 35 34 29 30 27 23 24 25 23 21 16 14 11 8 4 2 2 8 6 5
36 32 28 26 25 24 24 24 24 24 23 23 19 22 24 16 14 28 29 27 29 31 33 34 32 32 33 31 31 27 25 23 21 20 18 17 14 11 8 5 2 3 8 4
39 36 33 28 26 25 24 24 22 20 20 22 19 17 13 10 15 27 29 27 30 34 35 36 34 39 37 36 35 28 28 23 19 17 19 18 16 14 12 9 6 4 5 4
39 39 37 29 24 24 25 23 22 21 20 20 17 14 12 11 17 26 32 31 34 38 37 38 38 34 42 37 37 30 30 24 20 15 15 17 18 18 17 15 12 11 8 4
36 35 34 31 31 27 24 22 20 21 18 18 14 14 18 9 7 23 28 34 35 39 36 36 38 32 41 38 37 33 32 24 19 17 17 18 19 21 18 17 15 14 12 9
35 37 32 25 26 30 27 22 21 20 21 21 17 11 13 14 16 21 26 36 37 41 38 38 35 36 40 38 36 37 31 23 22 21 22 21 22 22 20 18 18 18 16 14
32 33 36 28 21 27 27 26 23 22 22 22 24 24 21 17 8 20 26 36 39 38 42 41 37 36 41 38 38 39 37 27 27 27 24 23 24 24 23 21 20 20 19 18
27 30 29 34 25 33 27 26 25 25 27 24 25 23 28 24 20 17 19 32 37 35 37 42 36 37 46 45 44 45 38 30 32 34 28 26 26 25 23 22 21 19 17 20
26 19 26 29 32 24 25 22 22 27 30 28 29 24 26 26 24 26 16 23 41 37 37 38 37 35 44 49 48 45 39 39 41 38 32 29 29 27 26 24 21 19 18 18
27 12 31 32 34 24 22 21 20 23 28 30 36 28 24 17 22 25 25 22 16 33 36 38 38 40 37 28 50 48 44 45 43 40 35 32 33 34 34 30 24 24 22 21
21 12 26 27 30 24 24 23 24 24 26 27 30 31 25 21 20 15 17 16 17 21 37 44 43 39 41 39 38 44 44 44 42 38 36 35 30 38 31 27 26 26 26 25
12 13 13 16 23 27 24 22 25 23 26 26 24 30 28 22 18 19 17 15 19 24 42 26 25 37 44 46 44 43 44 44 43 41 40 38 37 45 28 29 30 32 31 30
25 18 11 15 16 16 16 16 23 26 25 23 22 24 29 27 21 17 27 25 21 13 25 20 24 30 40 41 52 48 47 46 46 46 45 40 54 46 34 37 38 37 38 39
22 18 18 17 14 14 18 16 15 26 23 21 21 22 27 24 27 15 13 20 21 24 18 22 22 21 23 27 28 30 55 50 54 58 67 62 48 47 49 48 50 40 45 46
15 17 16 12 15 19 21 19 16 20 25 20 19 21 23 20 23 15 16 23 20 18 23 24 25 27 28 27 29 32 30 35 47 62 58 56 58 57 56 59 48 50 52 55
26 18 17 13 12 18 19 19 20 19 20 20 20 20 19 19 20 16 19 10 17 22 23 25 25 26 30 30 31 32 34 35 36 40 42 47 50 50 51 47 41 45 44 46
23 17 15 14 10 17 25 25 19 18 21 20 20 20 16 18 21 17 17 14 18 20 21 22 23 22 21 26 27 30 32 32 32 30 29 29 27 26 24 26 30 31 33 35
17 19 16 16 16 13 19 20 20 22 20 19 19 20 22 17 20 22 21 22 23 29 27 26 26 26 27 23 23 23 23 23 22 20 20 21 22 25 28 28 29 31 34 38
13 16 20 19 8 7 13 15 13 13 13 14 19 22 27 26 26 20 20 15 15 18 23 30 28 28 28 29 26 23 19 20 22 23 24 26 28 29 32 33 35 36 38 40

GFSCGP_500_spd_081.txt.gz
Wind_Speed
39 39 37 32 33 30 33 32 32 40 34 38 38 41 43 38 38 35 32 32 30 29 29 30 39 39 35 35 32 28 27 26 27 26 27 26 21 19 20 22 25 27 30 31
37 35 29 33 32 35 30 33 36 38 37 40 37 41 39 35 34 32 32 31 27 27 30 30 39 27 32 33 31 26 26 27 26 27 24 22 20 18 19 20 22 25 27 29
32 28 33 25 33 31 34 34 31 32 29 30 35 45 32 36 33 30 28 29 28 29 29 30 31 26 31 30 27 26 26 29 25 23 21 19 18 15 18 17 21 24 25 24
35 29 32 29 28 36 35 33 32 32 33 28 25 31 34 34 33 30 31 30 27 28 28 28 28 25 27 27 27 27 29 28 24 20 21 19 15 15 14 16 15 17 21 21
28 31 29 30 29 33 32 34 31 32 34 36 29 33 23 29 30 26 27 28 28 28 28 27 28 30 25 30 29 29 30 26 23 20 21 20 14 14 13 14 14 14 20 18
26 27 26 28 32 29 34 30 29 26 22 33 15 25 19 15 23 23 29 27 30 31 31 29 31 33 28 32 31 32 31 26 21 20 22 18 14 12 11 11 11 9 14 13
27 27 26 26 27 28 27 25 20 16 18 16 13 20 15 21 19 22 24 26 28 29 26 25 30 32 28 33 32 34 30 23 20 23 22 18 15 11 10 7 6 5 7 11
28 20 30 27 24 25 23 19 23 12 13 17 14 18 16 21 19 20 24 28 26 32 34 31 33 32 32 32 30 31 29 23 21 24 22 20 15 13 12 11 9 4 5 5
22 20 33 31 26 23 23 20 18 22 20 22 21 14 19 20 17 18 24 26 28 32 28 29 34 32 32 33 30 31 28 23 23 21 21 21 17 15 14 14 11 8 5 6
34 33 28 34 27 25 24 24 19 18 17 17 8 7 24 19 18 21 24 29 32 31 32 30 32 34 35 36 30 33 27 25 25 19 19 22 21 18 17 16 14 12 10 6
33 35 29 30 31 23 25 26 26 22 20 17 14 18 21 19 17 22 26 30 33 32 34 33 34 36 38 32 33 34 30 28 23 20 17 19 22 21 20 18 17 15 13 8
37 37 33 29 27 21 27 25 20 22 20 23 22 22 15 16 19 21 27 33 35 33 34 35 36 34 35 37 38 37 35 31 24 24 19 17 19 22 22 21 19 17 15 12
40 38 33 28 25 30 32 29 26 28 25 21 19 16 16 21 24 16 17 26 35 35 36 37 37 38 38 41 44 42 39 33 25 25 22 21 20 21 23 23 21 20 18 16
43 42 36 29 20 28 25 24 28 31 28 24 23 25 25 22 16 16 18 22 29 38 37 39 39 41 40 44 43 43 42 33 30 26 24 24 24 23 24 24 24 23 21 20
40 37 38 36 36 31 22 24 24 28 27 26 22 26 26 30 25 24 21 10 26 37 39 39 40 40 43 42 44 43 43 39 37 33 30 31 28 25 27 26 26 26 25 24
40 35 28 29 33 34 34 29 27 30 30 28 27 25 28 27 25 29 27 22 19 32 39 38 40 39 39 41 36 47 45 43 41 38 39 35 33 30 29 29 27 27 27 25
33 40 21 24 28 27 32 30 36 33 33 32 28 31 28 26 27 27 30 27 19 19 39 39 39 42 44 39 44 49 47 47 42 41 42 40 36 34 32 31 31 30 29 28
32 39 38 15 33 30 37 25 18 24 24 27 29 31 31 29 32 28 21 21 15 21 23 40 37 41 43 40 43 48 50 50 46 44 43 42 40 38 35 34 32 39 37 35
34 25 18 6 27 27 22 29 16 14 18 20 25 26 28 34 33 26 25 18 12 15 20 20 42 43 44 43 40 36 48 53 51 46 47 45 41 37 38 39 29 42 41 35
29 19 9 15 20 18 19 22 20 19 24 22 24 25 27 27 27 27 24 24 22 17 10 15 17 40 42 42 41 40 41 38 53 49 50 52 52 42 40 39 38 40 35 31
30 13 10 18 17 26 26 18 16 20 24 24 25 24 22 25 24 25 25 23 20 25 25 19 16 20 27 34 50 41 49 46 44 45 47 50 46 44 44 44 40 50 47 39
24 17 11 13 15 18 18 19 18 15 16 23 26 23 21 22 24 23 27 26 16 21 21 20 22 17 24 26 24 34 35 40 48 55 55 52 52 48 48 56 58 53 68 42
20 19 14 14 14 14 15 13 19 17 14 18 23 24 23 22 22 22 23 27 18 23 26 20 21 24 24 24 25 25 25 32 38 36 36 40 53 64 67 67 67 63 64 59
23 24 19 13 15 12 14 18 20 18 17 18 20 22 22 21 18 21 22 22 21 17 15 16 18 20 21 25 28 29 29 30 31 32 34 35 36 35 37 38 44 39 42 40
11 22 24 16 14 11 12 15 23 29 29 25 20 20 21 18 16 20 22 21 23 18 21 21 20 22 23 23 23 25 29 31 32 34 34 36 37 35 33 29 23 23 24 27
14 15 21 16 17 13 13 17 14 18 20 22 19 19 21 26 18 15 21 23 19 19 18 28 25 28 27 27 24 24 26 27 28 28 28 28 29 27 25 24 25 27 30 32

GFSCGP_500_spd_087.txt.gz
Wind_Speed
32 32 24 28 30 29 31 36 40 40 40 39 43 44 39 41 46 40 39 28 35 39 37 35 32 33 39 38 38 37 29 24 28 32 28 27 25 23 24 26 24 20 18 17
29 26 26 28 29 32 34 37 40 39 36 37 40 43 42 44 41 36 34 39 35 39 33 32 34 36 39 36 40 30 26 22 28 29 27 27 25 22 25 24 21 18 20 22
28 23 28 29 29 30 29 33 37 42 37 36 41 38 38 37 36 38 38 33 37 32 26 33 36 35 34 35 31 31 19 24 26 27 30 25 22 23 23 22 19 18 22 22
25 23 23 24 26 29 33 32 33 37 38 38 33 38 31 26 24 27 30 32 31 25 30 28 34 32 32 29 30 30 22 30 28 27 28 22 21 22 21 19 18 21 22 18
20 20 22 24 25 30 32 36 34 33 34 37 28 28 23 19 18 16 24 24 23 26 30 31 32 31 28 34 35 26 28 33 31 29 26 24 23 20 19 17 18 21 20 16
21 24 26 28 31 34 38 38 33 31 29 35 16 19 4 9 19 24 14 22 20 31 31 37 36 37 41 41 35 28 34 32 29 30 27 24 22 17 17 16 18 20 17 13
28 28 30 29 33 34 34 29 29 29 25 27 22 11 8 9 11 23 21 25 19 24 36 31 33 36 35 33 33 32 32 31 31 31 27 25 19 17 17 15 20 18 13 13
34 32 24 31 35 37 37 31 29 30 23 22 23 20 18 9 20 22 15 15 12 16 20 26 32 34 36 32 30 34 34 33 32 31 28 25 20 16 16 17 21 18 16 16
37 36 34 34 32 34 28 30 25 28 22 25 18 25 34 22 16 18 14 14 15 17 21 27 27 30 34 38 34 35 33 31 34 33 29 27 22 15 17 21 21 19 19 19
39 40 34 35 32 34 33 24 27 28 26 21 12 19 20 16 24 20 19 17 18 23 24 25 26 29 33 35 33 32 34 30 31 33 30 28 20 13 19 22 21 20 20 19
45 47 42 38 39 37 32 29 29 29 30 27 25 27 24 15 15 21 16 21 23 21 19 23 31 31 32 26 25 31 29 30 30 29 29 24 18 14 19 24 21 21 21 20
42 47 48 44 42 41 37 27 24 29 30 25 27 26 18 20 18 14 8 12 17 17 15 21 28 29 33 32 30 27 28 27 31 31 30 26 21 16 18 23 24 22 21 20
38 41 44 41 37 42 40 37 36 28 30 30 28 27 22 21 17 11 13 13 13 14 15 20 28 33 33 31 31 31 33 30 33 31 31 29 26 22 18 18 23 23 20 19
36 34 36 40 37 38 46 43 32 28 28 25 34 27 22 15 10 14 16 14 15 16 15 19 28 35 34 34 34 32 34 34 31 28 31 31 26 23 21 21 20 20 21 19
32 23 25 34 32 44 42 46 36 37 38 36 23 27 30 24 23 8 15 13 16 18 17 18 22 28 32 33 36 38 36 35 33 30 33 33 30 27 25 25 22 20 19 19
25 25 27 24 29 47 45 47 40 42 26 34 23 19 29 28 25 22 17 14 11 11 15 15 22 28 31 33 37 39 37 37 37 35 35 35 33 32 31 28 28 26 22 20
25 29 28 12 11 35 53 31 31 23 20 33 36 24 28 29 28 24 28 15 15 10 12 15 16 21 31 33 38 41 41 41 41 39 39 37 36 36 36 34 31 31 28 25
25 24 20 9 12 26 43 31 26 23 19 22 15 18 16 23 22 21 22 23 22 17 13 14 16 20 26 36 40 43 46 45 44 42 42 45 44 45 46 40 37 35 33 31
18 9 15 7 11 18 19 22 23 25 24 28 28 16 18 19 20 23 24 23 23 20 18 15 14 17 22 27 34 46 48 46 44 47 42 46 40 46 49 46 43 38 37 37
8 19 17 12 13 20 19 22 25 28 26 22 24 23 24 27 26 24 27 26 26 20 20 19 19 18 15 29 38 37 48 52 49 45 39 48 44 48 46 48 47 44 42 41
5 9 10 7 9 6 7 24 41 41 36 31 23 18 22 22 20 18 18 20 24 21 17 19 16 17 17 19 22 39 39 46 49 50 46 47 43 45 50 54 49 49 47 49
9 6 4 1 10 6 7 21 25 26 26 27 22 25 21 17 17 17 15 16 17 19 20 18 18 18 19 18 19 23 43 49 46 49 50 50 50 51 51 53 47 51 53 57
4 11 9 6 14 10 12 24 20 16 12 10 8 9 13 15 19 22 20 19 18 19 22 21 18 15 18 20 20 24 20 32 52 53 60 61 60 54 49 47 66 59 65 69
6 10 19 7 6 8 14 15 15 14 13 13 13 13 13 18 20 18 21 23 22 21 22 22 20 20 20 19 22 19 19 17 20 21 31 41 46 51 52 54 63 59 63 57
8 7 13 11 1 7 9 10 11 11 10 11 12 14 17 17 17 20 23 22 22 22 22 23 19 17 16 18 18 14 13 15 15 16 18 21 22 21 22 23 28 31 35 36
7 5 3 8 6 1 4 5 5 5 10 13 13 15 19 21 19 17 17 16 18 19 19 20 21 20 19 19 20 18 17 20 20 18 18 18 18 17 20 23 26 28 28 28

GFSCGP_500_spd_090.txt.gz
Wind_Speed
41 38 29 33 32 31 31 30 31 28 32 39 38 42 42 41 42 40 42 44 38 34 36 39 45 42 38 40 39 44 43 37 35 33 37 32 30 34 36 32 31 28 25 25
35 28 29 32 30 30 30 30 28 29 30 37 37 43 39 39 41 42 41 37 31 29 37 42 39 39 39 36 38 40 33 36 30 35 38 32 34 34 34 29 27 26 27 25
34 27 29 30 30 27 27 28 31 31 29 32 43 43 36 33 38 34 32 36 44 39 40 35 35 33 33 39 40 42 35 33 30 36 39 35 37 34 29 24 26 27 27 24
32 29 28 30 28 27 30 28 28 29 33 35 44 46 30 26 32 34 30 38 40 36 36 38 39 40 36 35 39 33 34 32 32 35 35 34 34 29 27 26 26 28 25 23
25 25 29 27 29 30 27 28 29 32 36 39 35 38 28 29 28 28 38 38 26 28 36 37 37 33 38 38 31 31 33 32 33 35 35 35 32 29 28 24 25 27 24 21
25 30 30 29 29 28 28 30 32 33 36 39 30 36 32 25 22 16 25 29 27 24 31 32 40 35 38 38 36 35 31 24 34 36 38 36 32 31 27 24 25 26 22 18
32 30 30 31 30 30 30 31 34 33 36 35 32 36 36 27 28 13 24 26 23 31 33 36 39 31 34 37 34 33 31 30 36 35 36 34 33 31 26 23 26 24 20 17
31 28 29 30 30 30 30 31 32 30 32 33 29 32 33 30 31 26 13 27 24 18 23 30 28 25 32 31 30 34 35 36 34 34 34 34 34 30 26 24 25 22 18 18
29 29 26 29 30 30 30 34 24 31 29 33 26 29 27 24 27 23 9 28 19 24 16 28 32 30 27 31 36 31 30 32 34 35 37 35 33 30 25 24 25 20 18 20
30 29 29 27 29 32 33 29 28 29 33 35 28 30 27 21 24 16 20 10 13 17 16 14 25 37 35 36 37 36 33 35 37 36 36 35 34 32 26 24 23 20 21 20
29 32 33 31 33 35 34 33 35 34 34 36 33 31 23 25 20 14 19 8 13 18 17 20 19 25 28 31 30 32 36 43 44 39 37 37 37 30 26 24 22 21 23 19
35 38 38 38 37 35 36 40 41 38 35 33 34 30 22 22 16 16 9 7 9 19 19 21 24 28 32 30 31 32 39 38 38 38 38 39 36 29 30 22 20 22 24 19
35 40 42 42 40 38 42 48 46 46 39 35 37 32 25 25 18 13 9 11 12 14 27 21 25 28 32 31 35 25 14 16 6 42 39 34 31 32 30 23 18 21 22 22
38 38 40 43 38 38 43 52 54 48 46 43 34 32 29 25 17 16 6 9 14 12 18 19 19 24 29 30 34 32 30 26 17 20 27 34 32 32 32 25 21 19 19 22
36 34 38 37 32 33 41 49 57 55 47 36 34 23 9 20 27 23 21 8 12 14 16 15 14 19 26 30 29 28 27 24 23 25 30 34 33 33 32 30 25 22 19 20
31 30 27 22 23 33 37 45 54 60 50 46 41 40 26 15 25 25 25 14 10 11 13 18 13 15 20 27 33 34 31 28 27 29 32 28 32 35 35 30 27 26 24 22
22 23 29 28 20 21 25 30 46 40 46 44 22 22 37 35 17 20 23 16 12 11 7 11 13 13 20 24 33 37 37 34 34 34 34 35 32 36 38 34 31 30 29 27
20 27 25 21 14 12 8 13 33 37 41 27 30 26 32 32 30 18 21 19 15 16 14 11 9 14 14 23 30 35 36 36 36 37 37 38 38 36 37 36 34 34 34 32
24 22 19 10 8 7 11 16 16 24 28 28 23 17 12 17 20 12 13 14 13 12 12 12 13 14 14 20 28 33 36 38 38 40 40 40 40 40 38 37 38 38 38 38
15 13 12 12 9 4 11 21 22 24 27 35 17 15 13 11 12 9 13 13 15 16 14 15 16 17 17 17 16 27 32 38 41 42 44 44 46 47 35 44 43 45 48 43
10 6 6 4 3 4 8 20 23 22 33 27 22 12 13 8 10 14 15 13 13 16 18 15 16 19 17 19 16 20 30 31 36 42 49 49 51 51 49 45 50 42 46 43
3 2 2 6 7 2 2 26 11 32 21 38 18 18 13 12 13 16 15 15 15 14 15 17 16 21 21 18 20 17 19 21 37 44 45 53 58 53 45 53 44 43 44 51
7 12 5 1 12 6 2 16 16 26 29 18 19 17 20 18 19 13 16 17 17 17 17 17 20 22 23 19 19 20 18 23 21 31 41 45 47 53 56 54 52 50 52 63
5 7 6 7 3 5 8 14 14 12 13 12 10 8 10 11 14 16 19 20 20 21 20 20 21 22 25 26 22 19 22 22 22 19 23 31 36 45 54 55 60 57 58 60
8 5 2 3 1 6 6 12 12 11 10 11 9 7 9 12 14 16 18 19 23 23 23 23 23 24 25 24 23 20 20 23 22 20 18 20 19 24 30 35 40 45 51 46
8 7 5 1 3 6 9 7 8 9 11 10 10 9 5 8 15 20 20 20 24 24 25 24 25 24 23 24 23 21 18 18 15 15 16 16 18 19 23 26 28 32 34 34

GFSCGP_500_spd_093.txt.gz
Wind_Speed
45 47 40 38 47 47 44 43 41 32 36 35 34 30 27 29 39 48 52 55 53 54 51 49 47 49 51 57 62 66 63 54 47 46 42 46 46 32 32 31 33 35 31 31
46 42 34 42 41 42 43 39 35 32 34 33 33 28 25 31 41 50 52 53 53 54 52 45 47 46 48 49 52 53 46 50 45 44 39 43 39 37 41 36 37 35 33 31
45 35 39 37 39 39 37 38 33 34 29 30 34 30 27 32 44 39 43 46 44 46 46 46 45 37 45 45 50 49 43 43 46 41 40 44 41 38 39 35 36 29 32 29
44 35 36 38 38 36 38 34 34 29 30 30 35 36 26 34 40 37 39 44 46 47 44 42 43 37 44 47 41 44 42 40 41 37 43 46 37 34 40 30 28 32 28 29
36 34 36 37 31 36 34 31 30 31 32 31 32 37 32 35 43 37 40 41 45 43 42 37 37 34 43 38 38 41 44 36 34 37 45 40 41 39 39 33 32 29 28 30
35 36 37 32 33 32 31 32 33 33 34 30 31 41 35 41 42 36 36 38 35 33 29 28 31 33 41 38 40 37 42 41 40 39 39 40 40 35 37 30 28 26 30 31
35 35 32 31 30 31 31 32 34 35 32 31 32 37 38 39 39 37 36 23 29 25 25 26 29 31 37 37 37 38 34 34 36 38 41 40 36 38 34 30 28 29 31 29
33 29 31 31 30 31 31 32 34 35 33 32 34 37 34 35 33 34 35 36 28 29 25 33 32 32 31 37 31 38 35 32 36 40 38 39 38 37 33 30 30 30 31 26
31 31 27 28 31 32 33 32 32 35 33 36 34 33 34 30 29 28 29 24 27 20 27 21 23 31 34 37 33 35 31 32 37 38 39 36 38 35 33 32 32 32 29 25
31 30 28 28 31 34 35 35 34 35 34 37 34 34 33 26 25 23 17 17 20 14 15 19 20 29 27 32 31 35 36 40 40 48 40 38 38 39 37 35 34 30 29 27
26 28 31 31 31 33 35 39 39 39 38 38 38 36 29 24 22 22 19 12 14 19 16 13 14 22 32 26 27 30 33 35 28 32 45 40 42 40 35 37 33 31 29 29
27 31 35 34 35 36 36 40 43 43 41 46 43 41 29 21 20 20 14 12 12 11 16 14 13 16 20 30 31 31 32 34 35 35 38 40 40 37 37 36 32 31 30 30
30 33 34 37 40 40 40 42 46 50 52 47 44 43 34 20 20 22 15 10 14 14 13 18 17 17 20 24 28 27 26 27 29 31 39 40 40 38 36 35 34 30 29 29
34 36 38 41 44 44 43 45 48 50 53 50 49 43 35 26 23 22 24 15 11 11 12 11 19 18 21 24 29 33 28 24 17 23 36 44 43 41 39 37 33 30 30 31
34 36 39 42 42 43 46 47 48 53 53 52 48 46 39 30 24 14 26 23 16 11 10 12 10 15 19 23 26 30 33 29 25 20 25 37 47 46 41 39 37 33 34 30
34 37 37 35 35 33 38 39 43 50 54 52 49 45 41 32 23 19 24 23 17 13 9 9 13 13 14 18 21 22 25 24 25 14 14 23 33 41 42 41 40 38 35 29
35 31 30 24 26 29 36 27 19 24 40 50 51 47 43 39 25 30 13 12 13 12 13 8 10 13 14 16 17 22 26 25 24 22 20 20 22 30 41 42 38 38 36 31
22 24 25 23 26 28 14 13 10 18 18 35 42 41 34 23 20 27 30 21 13 15 14 14 12 10 13 13 16 19 21 24 28 29 24 21 22 29 28 36 37 35 37 32
21 25 27 25 19 10 14 17 2 9 13 21 24 31 36 32 16 19 18 15 9 13 12 11 10 12 12 14 14 16 18 24 28 29 30 26 28 27 30 32 35 38 37 37
20 19 12 11 11 9 13 16 18 6 14 25 25 22 16 13 13 15 13 8 6 13 12 13 13 12 13 13 15 15 16 22 27 30 32 35 32 29 38 35 39 39 39 36
5 0 5 5 6 6 8 11 13 7 21 20 20 11 4 9 9 7 4 6 6 7 8 11 13 12 13 15 17 19 17 18 25 33 37 37 38 41 35 41 42 36 42 47
2 5 10 7 9 5 2 2 7 11 16 12 24 19 9 6 1 6 7 9 10 11 12 12 14 17 18 16 18 20 23 20 25 29 35 40 39 40 44 46 46 46 45 39
6 1 8 3 7 5 5 13 8 19 21 12 23 14 10 3 11 10 8 11 14 14 15 15 15 17 20 21 21 22 23 25 26 27 28 37 39 41 47 48 50 54 54 59
4 5 5 8 10 13 10 15 14 16 21 17 8 5 5 8 7 10 13 19 22 22 19 20 20 18 19 21 25 25 26 24 28 29 28 30 31 38 48 51 44 45 49 56
4 3 3 2 2 11 14 12 15 16 15 13 10 9 8 8 8 9 11 14 19 25 24 24 24 24 24 24 26 28 28 30 31 28 30 29 29 30 33 36 40 41 41 45
6 5 5 4 4 4 11 11 7 5 5 8 7 4 5 2 1 5 10 16 20 23 25 27 28 27 27 27 28 30 30 28 28 30 29 28 26 26 27 29 30 28 28 31

GFSCGP_500_spd_096.txt.gz
Wind_Speed
46 49 43 41 46 48 50 49 46 40 41 44 42 40 34 33 37 41 43 44 45 47 51 52 53 51 53 62 65 64 64 63 64 69 68 60 48 45 43 41 36 40 40 36
41 38 43 46 47 49 49 47 40 37 38 45 39 35 32 33 35 38 40 43 46 50 53 57 55 52 53 51 58 55 56 59 61 62 66 66 51 49 42 45 44 41 40 37
48 49 49 50 51 49 43 42 36 39 39 38 38 34 28 31 33 37 41 44 47 52 56 56 50 47 48 47 52 54 55 58 54 57 52 57 51 47 47 49 48 44 44 43
50 50 45 47 49 46 41 38 40 39 38 36 35 34 29 29 31 37 41 45 48 50 53 51 49 45 43 45 48 55 57 55 47 49 48 47 40 46 40 47 44 50 47 39
48 45 45 47 40 40 40 38 38 36 35 35 34 31 30 28 34 37 40 45 49 45 47 47 44 42 36 40 39 47 48 44 45 46 46 42 45 44 42 45 43 36 40 39
49 49 46 42 41 41 41 35 34 34 34 35 32 34 29 30 34 36 42 48 46 38 41 37 39 35 32 35 39 43 42 41 45 42 39 41 43 42 41 45 41 37 31 29
46 44 41 39 34 34 32 31 33 35 34 32 33 36 31 31 34 35 41 47 44 38 30 27 29 24 24 28 34 37 38 35 31 41 43 42 38 39 42 41 30 35 28 28
41 39 37 35 31 29 30 33 32 34 35 35 35 37 32 33 32 33 38 44 40 35 32 36 28 27 26 27 33 35 37 38 29 39 40 35 33 40 46 41 37 37 34 30
38 33 30 29 29 29 27 30 32 35 36 37 36 35 34 33 35 33 38 36 31 32 28 32 28 24 23 27 26 30 34 40 34 35 38 39 42 44 43 42 36 36 34 31
37 32 27 26 24 28 30 33 34 36 39 40 38 38 38 35 35 33 33 29 27 24 22 21 23 21 20 20 22 24 27 39 35 30 32 41 44 44 43 44 40 35 32 32
24 27 27 27 29 32 34 37 38 38 40 42 41 41 40 38 36 32 29 27 27 20 17 21 20 17 19 21 24 27 27 33 35 33 34 40 43 47 48 40 39 34 31 31
20 25 30 30 31 33 33 36 39 43 43 43 45 43 41 41 40 34 27 23 21 18 16 15 19 16 14 23 25 32 29 30 36 36 35 38 40 50 38 42 37 32 34 34
23 30 31 32 33 34 35 38 41 44 47 48 48 49 49 47 46 33 26 23 21 16 14 15 16 17 16 16 22 26 30 29 30 31 32 42 31 45 43 42 36 35 34 34
25 26 30 32 36 37 39 41 43 46 49 51 53 52 47 47 44 34 28 25 19 20 15 15 13 17 18 15 18 15 23 25 21 24 30 31 36 39 44 42 39 40 38 33
25 29 32 35 39 41 42 44 44 49 51 56 51 53 46 46 39 35 28 23 10 20 14 12 13 13 15 13 13 15 20 26 23 25 19 26 30 33 40 45 45 43 40 35
31 32 33 35 39 43 45 46 48 47 48 53 52 52 47 43 36 37 35 40 16 20 14 10 9 11 13 10 9 15 16 22 25 27 23 22 28 41 40 55 48 44 42 39
29 32 35 38 39 40 43 36 37 37 31 27 30 30 42 37 34 36 28 24 13 16 12 8 6 6 10 12 9 12 13 17 23 22 21 9 25 44 50 42 52 46 44 40
31 35 36 35 35 34 33 28 22 10 15 22 23 18 20 28 30 26 20 14 16 19 16 9 7 10 9 10 10 11 13 16 23 23 22 20 16 18 29 34 46 43 45 40
29 27 27 31 34 33 25 16 19 23 21 16 8 1 9 12 18 25 17 14 10 13 10 8 9 11 10 9 11 9 12 12 16 20 22 19 16 17 29 30 44 48 44 43
16 17 15 10 4 3 6 13 14 17 11 11 1 2 9 7 21 19 16 13 8 10 9 10 11 13 11 9 9 9 11 11 15 16 18 19 22 22 23 21 29 34 38 35
8 7 6 6 5 7 7 7 12 10 11 7 9 13 10 13 14 19 16 12 10 7 6 7 8 9 11 11 10 11 11 13 14 15 21 21 27 28 31 27 30 29 31 35
3 8 8 4 13 8 5 2 5 4 5 8 11 10 13 14 12 9 8 5 5 6 4 9 10 11 12 13 15 16 15 14 15 17 18 23 27 31 35 38 37 34 33 48
3 3 2 1 1 3 2 2 4 4 8 16 16 11 10 13 8 4 5 3 7 9 11 11 11 13 15 16 17 19 20 18 18 18 20 21 24 26 33 37 39 40 36 40
6 2 5 2 3 3 5 6 9 9 13 16 19 16 8 7 6 6 6 9 10 10 12 14 14 17 19 17 17 18 19 22 23 23 23 23 25 26 28 34 39 41 44 49
10 7 2 1 6 9 9 11 12 11 15 15 13 9 6 6 5 5 6 9 11 13 15 16 17 18 19 23 26 26 24 22 24 26 27 29 30 28 30 32 34 36 40 45
8 9 6 4 6 12 13 11 11 12 11 9 7 4 3 4 3 2 4 7 9 11 14 15 18 20 20 22 25 29 30 30 30 30 30 30 31 32 34 35 35 38 37 35

GFSCGP_500_spd_099.txt.gz
Wind_Speed
61 60 60 51 49 48 47 45 45 42 43 44 46 47 44 37 37 35 36 39 41 42 41 42 43 44 46 50 54 56 57 62 67 70 74 74 68 68 59 52 51 47 49 42
60 59 54 45 47 49 45 41 40 43 46 48 47 45 36 34 34 36 38 40 39 39 40 42 45 47 49 53 57 55 56 57 63 68 67 68 67 68 66 59 49 48 47 38
53 49 49 50 47 47 44 44 43 46 47 47 47 43 31 32 34 37 39 38 39 39 40 41 44 48 51 57 57 55 52 50 49 49 54 59 63 66 64 62 53 48 46 42
58 52 52 49 44 48 45 42 43 45 46 44 44 43 33 32 33 36 37 38 38 40 40 42 46 52 56 56 52 49 48 48 49 47 47 52 56 55 52 46 41 39 45 48
40 41 44 46 45 43 41 42 44 43 42 41 38 37 37 34 32 34 36 38 40 40 41 43 49 56 54 48 46 44 43 44 44 46 45 51 47 41 43 38 34 38 46 47
39 44 43 44 44 41 41 43 42 41 39 43 33 34 37 35 33 35 38 38 38 39 41 45 48 44 37 35 37 32 37 41 39 39 37 43 39 39 45 40 39 43 42 45
48 48 48 44 42 40 38 37 37 38 38 37 32 35 35 34 35 36 37 36 37 39 40 46 39 33 34 32 27 23 28 32 31 31 34 36 35 37 37 36 36 36 41 37
42 45 43 39 34 33 33 35 33 34 34 36 37 38 35 36 35 35 34 35 36 39 40 42 35 29 33 27 27 25 24 27 31 32 36 38 36 39 34 34 36 41 43 38
39 34 32 31 33 29 30 32 33 37 38 37 37 34 34 34 33 34 34 34 35 40 39 37 35 29 29 21 24 22 25 26 29 33 30 28 38 35 33 38 41 41 41 42
29 28 29 29 26 26 30 33 34 35 36 35 35 33 33 32 34 34 34 33 35 38 36 35 32 26 23 21 20 21 24 26 31 34 36 32 37 36 36 39 43 42 45 41
38 35 31 30 32 33 32 31 28 30 33 34 34 34 33 35 36 37 34 32 32 33 34 34 27 22 21 20 21 16 18 22 28 35 39 34 36 34 37 35 35 39 46 40
29 28 27 28 27 27 28 29 30 32 34 35 37 37 37 40 40 38 38 35 32 31 33 30 29 19 17 19 15 20 22 21 26 31 39 31 32 34 35 34 36 42 44 43
27 23 22 24 25 24 26 27 29 33 35 37 38 38 40 42 43 42 41 40 34 30 32 25 25 20 16 18 14 18 25 25 28 26 37 30 30 28 38 38 43 44 44 41
20 21 22 22 23 24 26 28 33 36 39 40 43 45 44 47 50 47 47 44 38 33 31 28 22 19 17 17 18 12 22 24 27 25 33 36 33 33 34 39 43 42 41 45
16 16 18 22 25 28 30 32 36 39 41 44 44 47 46 50 52 51 48 43 37 34 31 20 18 16 16 16 16 14 14 15 27 17 23 26 27 37 34 38 43 35 38 42
16 20 22 25 28 30 31 34 38 41 42 47 49 50 49 53 54 52 49 41 35 29 19 16 15 14 15 15 13 14 15 14 20 21 17 20 16 23 25 35 41 40 43 46
19 23 25 25 28 33 36 36 36 38 37 39 39 37 32 33 41 39 38 32 27 30 17 17 13 11 10 11 12 13 14 13 18 21 15 19 16 20 24 32 40 43 46 48
20 22 26 28 32 34 37 37 36 33 32 34 21 22 31 32 32 26 23 20 18 21 14 17 14 9 9 6 8 13 11 10 14 18 20 20 20 17 24 32 39 34 37 48
21 25 27 27 28 32 34 31 27 24 22 17 22 14 12 11 16 16 17 15 11 10 12 14 13 11 12 10 10 9 9 7 8 14 19 20 21 20 11 22 35 33 38 48
20 20 19 17 9 9 8 7 8 10 11 15 3 4 4 13 14 11 18 14 6 14 10 6 6 11 12 11 11 11 8 9 7 9 13 19 22 21 18 10 25 36 45 48
12 9 7 3 4 9 12 13 7 6 7 7 9 8 6 5 6 9 13 12 12 8 7 6 5 4 6 9 10 10 11 9 10 10 9 15 19 19 23 26 21 19 40 39
8 3 9 12 13 9 6 2 3 3 4 5 2 3 8 9 15 19 17 14 10 8 7 6 5 5 6 6 7 9 10 10 12 11 11 11 14 21 27 24 29 25 27 24
4 2 2 2 2 2 2 1 4 4 2 5 10 9 15 15 16 17 12 9 8 7 8 8 8 7 7 8 9 10 10 12 14 14 15 14 17 17 20 25 30 38 38 35
8 4 4 0 2 3 0 2 2 9 8 7 12 17 16 11 8 7 6 7 9 9 11 10 10 11 12 13 15 15 13 13 14 15 17 18 19 20 22 24 26 27 35 38
10 11 2 2 3 2 4 1 3 7 9 9 13 13 12 7 4 2 1 4 5 7 8 9 10 10 13 16 17 19 20 22 22 21 21 21 22 23 24 26 27 31 32 31
12 13 7 2 5 7 10 9 11 9 9 9 11 10 8 5 4 5 4 3 3 4 6 8 10 12 11 12 14 15 19 23 25 26 29 29 28 28 29 29 30 32 34 34

GFSCGP_500_spd_102.txt.gz
Wind_Speed
68 72 72 65 64 59 53 55 55 57 56 53 47 46 45 40 40 42 46 45 41 40 40 40 40 40 40 41 42 44 46 49 50 52 55 59 62 64 68 67 67 62 59 55
60 63 63 67 63 58 55 57 57 56 49 52 48 45 43 42 43 45 43 42 41 41 40 40 40 40 40 41 42 45 49 50 53 55 58 61 62 66 69 69 68 63 59 53
58 51 62 58 59 56 58 58 56 51 49 48 46 44 44 42 41 41 40 39 40 40 40 41 41 40 41 42 45 46 52 57 58 61 61 61 59 60 62 68 63 58 55 54
57 36 63 72 65 60 56 47 48 48 46 44 46 38 44 37 36 36 37 38 40 41 41 41 41 42 41 44 49 51 55 57 60 60 55 48 47 45 46 55 51 51 54 55
51 54 51 49 54 51 45 47 46 48 46 43 42 40 37 37 34 34 36 40 41 42 42 42 43 43 44 46 49 52 51 54 49 48 49 47 45 43 47 47 48 49 48 51
41 43 45 41 38 44 38 42 48 44 41 43 37 37 28 40 34 35 37 39 40 41 42 42 42 42 45 48 49 51 46 40 44 46 47 46 43 41 43 40 39 42 45 43
41 41 42 43 44 43 38 37 36 36 39 36 34 32 25 44 38 36 36 37 38 40 41 40 39 39 43 47 51 42 38 42 38 34 32 36 36 37 36 36 38 40 39 43
44 42 42 40 38 37 34 30 25 22 20 21 36 36 42 40 40 35 34 35 37 37 36 37 37 36 41 48 41 36 35 34 36 29 30 29 32 33 35 37 37 36 40 43
38 34 33 30 27 23 23 25 20 28 29 30 27 34 38 39 40 38 37 35 35 35 35 35 35 35 40 43 35 34 29 30 29 26 27 27 26 29 35 35 35 34 36 40
37 31 29 24 21 21 23 24 23 26 26 26 24 27 27 39 37 36 34 36 35 33 33 34 36 34 40 38 31 33 26 26 28 26 24 26 29 35 37 38 38 35 34 37
33 28 25 26 27 30 29 31 32 31 31 28 26 26 35 35 35 35 35 36 35 32 33 34 37 36 40 35 32 26 27 22 23 25 28 30 31 35 31 35 37 33 33 33
28 31 27 26 28 31 34 35 34 34 34 34 34 33 37 35 34 35 36 37 37 34 33 35 39 40 39 34 29 22 22 23 23 25 28 32 30 34 31 34 33 35 35 36
33 33 28 26 30 33 34 33 31 31 33 35 32 34 36 35 38 40 39 39 38 36 35 36 37 39 36 35 30 24 23 25 29 24 24 29 32 34 31 34 35 35 37 37
28 24 27 29 30 27 25 25 25 26 28 29 31 32 38 39 43 42 37 41 43 43 42 40 38 40 35 35 29 28 26 18 24 26 29 21 27 33 25 31 29 40 35 37
35 32 32 28 20 18 16 19 22 25 27 33 32 38 39 44 46 48 48 49 48 48 46 41 37 37 32 32 29 26 26 18 24 31 21 20 32 34 25 28 23 37 36 36
23 19 16 13 13 18 22 25 28 29 30 34 37 40 46 45 48 52 53 54 55 52 48 42 36 34 31 28 26 22 21 21 18 18 20 18 24 35 35 33 34 36 41 41
11 9 15 18 21 23 26 27 30 33 36 40 41 43 41 44 49 50 51 50 49 45 38 33 26 29 29 25 24 21 18 17 17 19 18 23 18 27 27 20 21 23 33 33
13 15 16 18 22 26 26 29 31 34 38 38 39 36 25 29 36 39 39 37 28 19 20 24 25 26 23 20 15 12 14 14 15 17 20 23 21 16 18 21 27 33 26 31
13 14 17 18 21 24 23 22 20 22 23 22 20 14 22 22 26 17 12 16 15 17 13 18 18 23 20 12 12 11 11 11 12 15 16 18 21 19 18 19 22 29 31 35
13 14 15 15 14 13 14 14 17 16 9 9 12 12 13 13 13 5 11 16 9 4 15 18 18 16 10 9 10 11 12 11 10 10 15 16 22 22 19 18 11 22 27 34
12 12 8 6 7 11 17 17 15 7 9 7 9 12 14 14 9 8 7 7 6 13 15 13 9 7 6 5 6 6 7 8 10 10 9 13 14 19 21 22 22 13 28 36
9 6 5 9 13 15 12 8 6 6 3 6 4 2 2 5 7 6 7 14 16 13 11 8 5 4 3 4 4 4 5 6 6 8 11 12 11 13 19 21 20 22 23 30
8 10 8 7 6 8 5 3 5 1 4 4 9 8 10 13 15 15 15 14 12 10 9 7 4 4 5 6 6 6 6 7 9 10 11 11 14 16 16 17 23 23 28 25
13 10 7 7 4 4 3 3 7 9 5 4 3 12 15 15 15 15 12 11 9 6 3 4 7 9 10 11 12 13 13 14 14 15 16 16 16 16 18 21 22 22 24 33
15 13 9 5 5 4 2 4 5 7 6 5 7 10 14 12 12 10 8 5 2 2 4 5 6 9 12 13 14 16 18 20 20 22 23 23 23 23 23 23 23 24 28 31
15 17 13 6 5 6 5 12 9 7 8 10 11 10 12 12 12 12 10 7 6 5 4 3 1 2 4 7 11 14 16 18 20 21 24 26 29 30 32 33 33 32 31 31

GFSCGP_500_spd_105.txt.gz
Wind_Speed
71 74 73 75 73 73 74 71 66 63 58 60 66 62 58 54 53 51 49 49 47 43 40 41 41 42 42 41 39 37 37 40 42 44 45 45 45 47 50 51 54 55 58 59
68 74 66 66 67 65 58 69 69 61 59 59 64 62 56 54 53 50 51 53 46 41 43 44 45 43 42 41 39 38 39 41 45 45 45 46 48 51 54 56 59 62 64 66
59 58 56 57 54 63 62 71 71 67 67 68 58 60 56 54 51 51 51 51 46 44 44 45 45 45 43 41 39 40 41 43 46 49 48 50 54 57 61 63 64 68 67 66
52 46 52 53 54 48 46 43 64 65 69 65 41 49 41 47 54 47 46 45 46 43 43 43 44 44 40 39 40 41 43 46 48 49 52 53 57 60 64 67 69 62 60 62
37 41 45 48 51 59 53 45 51 43 50 62 55 37 31 31 48 43 43 42 43 42 42 43 42 40 39 39 40 42 44 47 51 49 52 57 60 61 55 53 55 52 53 54
31 33 35 32 34 37 39 36 39 50 29 41 47 36 24 30 31 36 39 44 41 41 42 42 41 41 41 42 42 43 45 47 49 48 51 55 53 47 48 51 51 48 48 46
30 29 29 33 42 39 35 23 29 34 27 37 24 23 32 23 21 26 42 35 37 39 41 41 42 44 44 43 42 43 44 45 46 46 47 49 44 45 47 48 48 49 45 43
32 31 30 33 38 35 37 30 32 35 33 24 30 32 28 37 38 39 31 30 35 39 40 39 42 45 44 42 41 42 41 42 45 43 46 42 44 43 41 39 41 43 41 42
30 32 34 33 36 31 23 29 17 22 23 19 19 21 27 32 37 40 41 37 35 35 36 38 41 43 42 40 40 39 38 41 43 42 38 39 37 37 35 36 40 40 38 40
31 32 33 35 31 28 24 15 13 23 24 19 14 15 24 26 28 36 40 37 38 38 38 38 39 40 39 39 36 35 38 41 38 37 37 37 34 32 33 34 40 39 37 35
24 30 32 33 29 26 20 18 21 26 28 24 23 23 28 26 35 36 33 36 38 37 38 38 37 37 37 37 33 35 37 38 38 35 34 32 29 31 31 31 31 33 34 36
21 24 27 23 23 21 30 32 31 31 28 21 28 23 23 28 31 32 38 35 36 37 37 36 35 36 36 36 34 35 37 39 37 36 34 30 29 30 31 28 32 35 35 37
19 21 30 24 22 22 28 32 31 37 36 36 27 24 33 39 45 45 43 41 36 37 37 36 34 35 36 38 37 36 40 41 39 35 35 31 28 30 35 31 32 32 31 38
20 24 30 21 23 29 27 31 34 36 37 37 38 30 39 42 42 40 40 37 36 38 39 37 36 36 36 37 39 40 44 43 39 36 36 32 30 26 26 30 32 34 29 38
23 22 34 34 30 32 28 26 29 31 28 30 26 31 37 41 41 37 40 41 39 40 41 41 41 41 40 39 41 43 45 41 40 36 38 30 30 31 28 32 34 29 24 34
28 31 30 30 32 31 26 21 20 19 20 26 29 33 41 39 39 43 44 47 48 47 47 49 48 47 45 44 43 44 42 38 34 32 31 28 26 32 31 35 37 19 21 27
31 25 24 24 17 13 17 18 21 23 27 32 33 37 40 42 44 47 49 50 52 53 54 53 52 50 48 45 42 38 36 34 32 30 28 25 20 26 25 30 35 28 23 30
20 21 13 13 14 21 19 21 24 26 31 33 36 40 42 41 42 41 40 46 47 48 44 37 33 31 26 28 30 32 33 32 24 20 25 21 22 18 16 19 31 29 28 33
12 11 15 17 18 22 21 21 21 21 26 26 30 30 24 20 20 25 31 32 28 21 16 15 18 19 24 25 25 28 24 16 12 13 13 17 20 25 21 17 19 28 26 29
15 15 16 16 17 18 14 14 16 21 20 13 12 13 15 16 15 11 5 1 8 11 10 12 14 18 21 21 16 14 7 10 11 9 9 15 13 18 18 19 20 23 22 28
13 13 13 14 12 10 11 14 15 10 9 11 13 12 12 13 8 9 8 8 7 7 7 9 8 11 11 9 8 7 6 7 8 11 10 9 8 16 19 23 22 21 19 22
10 10 9 7 8 13 13 12 9 10 14 9 13 12 9 8 13 14 12 4 9 13 8 11 9 7 5 5 5 3 2 3 4 5 7 14 14 9 9 15 19 19 21 19
9 9 9 9 9 10 10 7 6 12 4 4 2 4 4 7 8 6 10 12 10 8 8 9 10 7 4 2 1 3 4 5 6 7 8 8 10 15 17 15 13 20 22 23
9 10 12 9 9 9 8 6 6 7 2 4 2 14 14 15 16 15 14 13 12 11 9 7 6 5 4 5 6 8 10 12 13 14 15 16 16 16 16 16 17 21 22 21
10 13 13 11 10 9 8 7 12 7 7 3 3 12 13 14 13 14 14 13 12 13 10 8 7 5 5 6 7 9 11 13 15 17 18 20 22 23 25 25 24 24 23 25
11 16 16 13 8 9 9 10 7 6 6 6 6 10 13 14 14 14 14 14 14 13 11 9 7 6 6 7 9 12 15 18 20 22 24 25 26 27 27 28 29 31 33 34

GFSCGP_500_spd_108.txt.gz
Wind_Speed
64 68 67 67 68 72 74 75 78 78 76 70 56 53 44 50 63 64 66 59 53 48 55 54 51 45 45 44 40 39 39 40 41 42 42 43 42 42 42 43 45 47 48 47
62 66 64 65 67 67 65 69 71 65 66 58 57 66 59 49 55 54 61 55 54 48 53 55 49 45 46 44 42 41 40 41 40 41 41 40 40 40 41 44 45 48 50 49
63 61 55 59 60 51 50 55 49 53 49 55 65 60 62 56 58 50 48 48 45 54 59 56 48 47 48 46 43 42 41 40 41 41 41 40 41 40 44 47 50 51 53 56
57 45 43 42 44 45 49 46 48 49 51 40 51 61 56 61 65 45 39 36 48 60 54 51 48 48 47 45 44 42 41 41 41 41 42 42 43 44 48 51 53 55 57 59
37 37 34 36 34 37 45 45 42 45 51 52 46 52 54 48 37 40 37 47 52 55 54 45 46 46 45 43 42 43 44 42 40 40 41 42 43 43 46 50 54 60 64 66
36 38 37 33 33 33 39 37 37 45 39 46 37 45 40 22 27 36 48 59 51 44 40 44 44 44 42 41 42 43 42 40 40 41 42 43 41 44 47 53 60 61 59 58
36 35 36 34 33 31 30 31 40 40 34 29 24 23 39 38 32 37 40 34 36 39 40 41 41 44 42 43 42 41 42 41 41 41 41 40 40 46 52 56 55 54 50 54
41 41 34 29 29 31 28 31 33 30 28 26 24 24 27 33 30 36 32 35 44 26 31 35 38 39 40 41 42 42 43 39 37 38 40 41 44 50 53 51 46 48 49 51
35 31 30 31 33 29 27 26 20 21 17 14 17 17 27 18 30 35 35 41 29 32 28 35 37 39 43 43 44 43 39 36 36 37 39 40 44 50 47 44 46 42 44 42
28 26 25 28 33 29 24 19 16 18 18 21 16 15 21 30 27 32 38 46 39 36 45 39 37 41 42 42 43 42 38 35 37 38 36 41 45 44 41 41 43 40 37 36
25 26 24 27 32 31 30 23 20 20 21 20 18 17 17 18 32 33 31 32 35 39 37 39 42 42 43 42 42 39 37 35 36 35 36 40 44 39 39 39 36 36 33 37
28 28 26 23 27 29 26 25 20 24 22 17 26 27 19 25 31 21 32 34 39 36 37 38 43 43 42 41 39 38 38 36 35 36 40 40 43 38 38 37 33 29 32 35
32 27 23 25 30 18 16 17 23 25 29 23 25 23 11 22 30 41 31 36 30 32 41 46 44 42 38 38 37 38 37 36 35 38 42 42 43 38 37 36 34 28 29 26
28 27 23 23 26 25 17 19 28 31 32 33 34 33 31 28 39 43 43 43 44 45 42 42 40 37 38 36 36 39 37 36 38 40 44 45 44 38 38 37 35 32 32 31
29 26 26 25 30 30 26 28 29 30 33 34 38 45 47 49 51 51 49 48 48 46 40 39 38 37 36 34 37 37 38 40 41 42 46 48 44 36 38 41 34 29 29 33
25 24 28 26 25 34 38 38 35 35 33 34 36 36 46 48 47 42 41 41 42 45 45 41 40 39 38 39 39 39 40 40 43 44 48 48 36 33 36 34 39 30 36 23
25 25 25 27 30 35 40 37 31 22 22 27 26 33 34 31 37 42 43 45 46 47 48 48 46 46 47 46 46 45 44 44 43 45 46 37 36 31 31 29 24 27 29 32
24 28 29 32 27 24 29 20 20 23 26 28 29 34 37 38 41 43 43 42 41 46 47 47 46 44 44 44 41 39 39 38 39 38 34 34 34 28 25 20 19 25 24 25
21 23 22 20 17 24 22 15 20 23 22 24 27 31 33 31 30 25 24 25 28 31 31 27 20 17 16 18 20 23 22 25 26 27 29 22 18 18 21 24 21 17 20 30
22 19 18 17 17 20 17 18 15 20 21 20 24 19 20 18 17 12 18 11 10 10 2 4 7 6 6 8 9 15 23 18 18 16 11 9 6 13 15 18 19 22 19 21
17 17 16 16 19 19 15 12 16 20 17 11 15 18 15 11 13 12 9 8 13 14 6 8 7 4 4 4 8 9 3 3 7 11 12 9 7 4 2 9 16 15 15 19
16 15 17 17 16 13 12 13 16 13 12 15 15 18 17 15 9 6 10 13 6 7 7 8 6 3 4 4 5 3 2 1 0 3 4 7 11 15 14 10 4 7 10 13
15 15 12 14 8 9 10 11 9 7 10 6 11 6 6 8 11 10 9 10 11 7 7 7 7 5 6 6 7 5 4 3 5 7 8 9 10 11 11 13 17 19 14 11
14 13 13 11 9 10 10 9 6 8 5 5 8 3 2 9 11 10 11 14 13 11 9 8 8 8 7 6 6 5 4 5 7 8 9 11 13 14 15 16 17 17 17 20
12 11 11 12 11 10 10 9 7 8 9 5 4 5 10 11 12 12 10 9 10 13 12 12 11 10 10 9 8 8 9 10 12 15 17 18 20 21 22 22 23 23 23 23
10 11 13 14 13 10 9 10 9 13 11 10 7 9 14 14 15 16 15 14 13 13 12 11 10 9 9 9 11 13 16 18 21 24 25 26 27 27 28 28 30 31 31 32

GFSCGP_500_spd_111.txt.gz
Wind_Speed
48 50 52 53 58 59 57 61 64 63 65 71 73 76 82 80 56 56 57 46 48 51 56 65 62 58 55 50 48 48 49 47 44 42 42 42 42 43 43 43 43 44 43 43
49 51 55 57 58 61 62 62 63 66 67 67 69 74 69 64 59 52 50 45 44 46 52 61 56 55 55 52 47 48 47 47 46 43 41 40 41 41 41 41 40 40 41 42
54 53 57 59 60 58 57 58 57 60 59 59 57 59 55 47 38 43 59 59 44 47 54 55 50 46 48 44 43 46 47 47 46 44 42 41 40 40 40 40 39 38 40 43
56 54 55 58 53 40 51 46 47 44 48 51 56 57 49 38 33 46 51 38 48 54 50 39 51 56 49 42 44 43 45 46 45 43 42 41 41 41 42 40 40 40 43 46
50 51 55 50 40 40 40 40 42 44 45 47 44 45 41 34 41 39 51 52 52 52 51 38 53 47 35 41 42 42 44 45 44 43 42 42 42 42 41 41 42 44 47 49
51 49 46 40 37 36 40 41 37 40 42 43 39 42 26 25 36 38 48 48 58 62 50 41 53 43 39 40 41 43 43 43 42 42 41 42 43 43 42 42 42 42 45 48
44 41 40 39 35 32 34 36 36 38 39 40 29 32 25 19 25 32 52 54 54 53 48 45 50 47 46 44 38 42 40 41 40 39 40 41 44 41 40 42 43 43 47 53
40 37 38 37 36 38 37 33 31 34 35 31 32 27 24 25 26 34 37 55 61 46 46 45 43 44 45 40 40 42 42 41 41 42 43 40 41 40 40 41 41 44 51 54
36 41 37 32 31 33 34 30 30 29 26 26 24 16 19 16 20 29 42 31 39 38 40 39 38 37 29 34 37 37 37 39 40 40 40 41 40 39 39 39 42 46 52 51
36 42 34 28 29 33 34 30 24 22 21 21 17 17 15 18 23 25 33 31 29 28 47 46 45 30 29 38 40 39 39 40 43 43 40 40 39 39 39 40 42 46 48 44
39 35 28 28 27 29 33 31 24 21 22 22 20 22 19 18 20 32 29 37 34 40 42 42 36 37 40 34 37 41 44 43 41 41 40 39 39 38 38 41 43 44 45 42
35 30 27 24 25 29 32 31 26 20 17 24 24 35 33 33 31 12 38 33 34 35 42 47 42 40 37 38 38 42 42 43 41 39 39 38 36 38 40 42 43 45 43 39
34 32 33 32 30 29 33 27 24 22 26 23 29 31 25 33 24 29 12 27 41 44 41 43 45 43 44 45 46 51 47 42 39 38 39 38 38 38 42 42 42 46 44 41
45 43 39 36 34 29 30 29 25 24 28 29 30 30 36 35 40 31 33 35 33 30 33 36 40 45 49 51 52 48 44 43 42 41 40 38 38 39 43 43 44 46 44 38
44 43 39 36 32 31 25 26 25 26 25 29 33 35 34 36 40 44 48 49 50 51 50 48 52 51 50 47 44 40 38 41 41 41 40 40 40 41 43 45 46 49 38 35
37 38 36 33 30 29 31 34 31 31 32 34 37 40 39 39 39 40 44 48 50 50 51 52 53 50 45 42 40 40 39 38 40 41 40 42 42 43 45 47 47 42 35 33
35 31 32 31 28 32 32 26 29 36 39 43 42 41 32 28 30 38 42 44 44 45 47 48 49 50 48 44 43 41 40 38 38 39 41 42 44 47 48 49 41 37 32 29
28 27 26 28 25 28 28 25 30 35 34 30 28 30 31 32 33 36 39 41 43 46 47 49 49 48 45 42 40 40 39 37 35 37 37 37 41 42 42 37 36 32 27 27
24 25 27 29 27 30 24 27 25 25 25 28 30 30 29 29 30 29 28 29 30 30 30 26 18 16 16 15 14 14 14 13 19 20 21 22 24 26 27 27 25 22 24 22
23 22 23 25 26 25 19 17 21 23 19 20 26 28 24 18 18 21 19 15 13 5 9 6 11 5 4 4 4 5 6 11 13 9 10 10 10 4 4 16 19 16 15 20
22 23 21 22 20 20 17 16 19 18 16 18 16 19 23 13 12 13 17 17 10 15 9 4 2 2 0 2 4 4 4 5 5 4 8 9 9 9 9 2 8 8 12 12
22 21 18 19 19 16 17 16 15 15 15 11 13 17 20 20 17 9 9 11 11 2 4 5 6 6 7 10 11 9 4 3 4 7 6 6 8 10 12 16 18 10 3 5
18 18 18 18 16 13 14 13 11 10 7 11 11 13 6 9 8 6 6 5 8 8 5 12 13 13 11 9 7 7 8 7 7 8 9 8 8 9 12 14 13 13 16 19
19 18 17 15 12 13 11 9 9 8 6 5 7 8 3 2 7 8 8 10 13 14 12 10 9 8 8 8 7 6 10 8 7 7 8 11 13 15 16 16 15 15 16 16
18 16 15 14 15 12 11 9 6 7 6 7 3 2 5 9 12 14 12 9 9 9 9 11 10 9 8 7 6 5 4 5 7 10 13 16 18 20 21 21 21 21 22 22
16 15 13 13 13 12 11 8 6 8 9 8 8 5 9 8 10 11 13 15 15 13 11 9 8 6 4 4 3 4 6 9 12 14 15 17 18 19 21 22 23 24 25 25

GFSCGP_500_spd_114.txt.gz
Wind_Speed
47 46 43 48 50 50 52 53 52 53 60 63 66 65 66 69 70 70 71 73 56 52 57 59 62 64 69 70 68 61 54 54 52 52 52 52 50 46 45 46 46 46 45 45
45 45 48 51 52 52 55 57 56 53 59 63 62 64 64 63 69 61 57 49 46 51 51 56 52 51 52 59 62 60 55 55 54 51 51 51 50 47 45 45 45 45 45 44
46 47 48 49 53 54 55 57 57 60 59 57 60 63 60 60 54 53 49 44 51 49 48 53 48 49 43 44 44 50 49 55 56 54 51 50 49 47 46 44 44 45 43 43
51 48 47 51 53 53 53 56 59 57 54 54 54 57 51 50 49 46 47 49 51 52 57 71 58 46 48 50 49 52 48 59 55 53 49 49 48 46 45 44 44 43 42 42
49 50 53 54 53 53 55 56 51 44 41 43 44 46 43 45 40 39 41 44 49 55 52 40 54 55 53 46 48 50 52 43 49 52 47 46 47 45 44 44 43 43 43 43
50 51 52 51 53 53 52 45 37 37 36 37 36 42 36 41 39 36 37 37 47 45 48 49 40 41 40 42 41 40 43 45 49 50 45 46 45 44 44 43 44 45 44 45
47 46 47 48 47 43 41 40 39 39 36 34 35 41 39 41 37 31 33 25 35 50 42 50 43 37 44 43 49 45 42 40 46 40 41 46 45 43 43 44 45 44 45 48
46 43 42 42 41 38 40 36 37 42 38 32 35 35 37 38 28 26 28 26 32 51 46 47 46 44 54 54 52 43 47 50 49 46 43 40 40 41 42 44 46 47 49 48
44 42 37 35 34 36 35 32 35 36 33 33 31 28 29 30 29 27 28 25 27 42 49 47 50 50 45 47 44 41 46 51 46 45 44 41 38 39 40 45 46 43 46 47
38 38 35 33 34 33 32 33 32 33 28 30 29 27 28 22 18 23 16 25 35 51 39 44 47 46 50 40 42 43 37 37 39 37 41 40 36 39 40 43 44 43 45 45
33 34 35 35 32 30 33 32 31 29 29 31 32 29 26 27 28 29 25 13 7 32 34 28 25 32 45 40 40 40 38 32 29 29 34 39 42 40 41 43 44 43 44 45
36 41 40 39 32 30 30 29 30 31 25 29 32 25 29 31 34 34 35 34 22 18 25 34 33 31 35 38 40 42 41 40 40 39 42 42 41 40 42 42 43 44 45 46
40 41 37 38 36 26 30 28 31 31 29 28 31 32 33 38 33 28 28 30 32 29 26 26 33 42 43 41 40 40 42 44 44 47 51 48 41 38 41 41 42 45 44 47
39 38 38 43 35 26 30 38 39 34 32 30 34 37 38 36 34 33 36 37 38 41 44 32 29 44 41 40 40 42 44 49 52 53 49 46 41 40 41 40 42 46 47 45
38 36 36 42 38 40 39 39 39 36 39 35 31 36 34 32 35 39 39 38 39 43 45 45 44 43 43 43 43 47 53 54 54 49 44 41 39 40 41 41 44 45 47 46
36 35 35 36 38 43 41 40 39 33 34 34 28 30 29 32 35 38 42 45 44 42 41 43 50 52 53 55 56 56 52 47 42 41 41 40 40 42 42 44 44 44 46 47
35 35 34 34 35 38 45 40 36 32 36 34 32 31 34 38 43 38 36 36 38 40 42 43 44 45 47 49 50 47 44 43 43 42 41 41 41 43 44 45 45 46 48 47
32 32 34 36 38 41 43 35 32 34 34 32 32 36 39 40 35 35 36 37 39 41 43 45 47 49 49 49 48 47 48 49 48 44 40 39 40 42 42 46 48 49 49 46
29 31 32 32 33 37 36 28 25 30 31 32 33 31 31 32 33 34 36 34 34 34 35 33 31 28 28 30 30 30 28 25 24 17 18 21 20 21 23 26 31 36 37 34
26 27 27 29 32 31 26 27 29 28 25 28 28 29 30 28 27 27 26 22 17 21 12 11 15 14 11 7 4 4 4 3 5 12 7 6 6 10 13 12 13 15 20 27
25 26 24 24 25 23 22 25 23 21 19 24 26 25 24 20 22 18 18 20 19 15 16 14 6 7 7 6 4 5 9 9 7 7 6 11 12 5 7 10 10 14 11 2
25 24 21 24 22 22 19 20 19 20 20 20 22 20 16 19 17 19 18 15 13 14 4 5 6 5 5 6 10 12 11 8 4 5 4 7 8 8 9 11 12 13 15 20
23 22 24 24 17 17 15 18 19 17 14 13 13 12 17 14 14 10 9 7 10 8 6 6 6 9 10 10 8 8 6 7 9 8 5 4 4 7 8 10 12 13 16 16
20 20 19 18 17 16 17 14 13 12 11 11 9 9 11 10 8 11 8 9 10 9 12 12 10 8 7 5 10 9 6 3 2 3 5 6 8 10 12 14 15 18 19 20
20 20 16 17 18 17 16 13 12 11 11 10 7 6 4 3 8 10 10 12 15 13 11 9 9 10 8 5 3 2 1 2 3 5 7 9 12 14 16 17 19 20 21 23
16 17 18 17 18 16 14 12 12 10 13 9 8 6 7 7 11 12 11 11 11 12 12 10 7 6 5 4 2 2 1 2 4 6 9 13 17 21 22 22 23 24 24 25

GFSCGP_500_spd_120.txt.gz
Wind_Speed
48 51 46 43 48 47 49 49 49 46 46 47 44 46 50 50 52 54 57 59 61 64 64 64 66 69 70 71 71 71 70 68 66 60 58 61 64 59 59 61 63 62 59 57
47 49 47 47 46 48 48 48 48 48 48 48 47 46 53 54 56 58 61 63 64 65 68 70 72 72 72 71 67 63 65 61 55 51 55 55 57 57 57 60 61 63 61 60
42 45 44 44 43 42 44 47 48 50 50 51 51 50 55 56 57 61 63 66 67 68 68 68 68 68 65 59 55 52 47 46 46 50 51 49 47 46 54 55 56 61 61 59
46 40 41 43 41 41 44 44 48 50 52 53 54 53 55 57 60 62 61 61 62 61 61 60 60 58 54 51 50 48 43 44 52 44 52 51 48 44 43 48 54 60 59 57
41 38 39 39 40 43 44 45 47 50 52 54 55 57 55 59 61 62 62 61 57 54 51 53 52 51 48 43 38 38 39 43 49 55 53 46 35 38 40 43 48 52 54 59
42 42 41 41 42 44 46 49 51 53 54 55 53 52 55 57 56 57 55 51 49 46 47 50 47 46 39 38 34 34 33 35 46 38 42 43 35 36 45 38 37 45 46 52
45 44 45 45 46 45 45 47 50 53 53 52 53 54 54 50 51 51 44 41 40 43 46 43 41 35 30 38 31 30 33 30 40 46 43 42 36 37 38 41 41 38 39 44
48 47 45 44 45 47 46 46 47 47 50 51 51 53 49 46 43 38 39 37 40 42 42 39 36 38 40 33 38 38 29 48 36 46 40 38 32 35 31 34 35 34 39 41
47 47 44 42 42 43 44 42 37 39 43 45 47 46 43 40 36 36 38 38 39 38 32 22 25 29 35 32 39 40 34 41 29 29 29 30 31 36 25 23 20 20 29 39
46 47 45 41 40 42 40 38 37 35 36 41 43 42 38 33 33 34 36 36 35 31 26 29 31 31 27 32 35 43 48 36 42 35 34 29 30 35 32 25 25 25 29 30
45 47 47 45 43 37 37 37 38 36 37 39 40 38 35 30 31 33 34 36 32 24 27 31 27 28 30 29 33 40 45 49 45 44 42 41 44 43 46 30 30 28 27 30
42 45 46 43 40 34 33 30 36 38 39 39 41 38 32 25 28 30 32 33 31 33 31 29 31 32 31 32 31 29 20 34 39 36 31 28 26 29 31 32 33 34 29 30
34 33 31 33 37 35 36 35 39 42 41 41 38 36 31 30 34 33 31 30 34 36 37 37 32 33 34 35 34 35 30 28 27 24 30 31 33 34 37 37 37 39 40 37
34 44 47 45 44 44 43 42 41 40 40 37 46 32 32 33 34 33 31 31 33 34 31 32 34 35 37 39 37 37 36 37 35 35 35 34 35 39 40 39 43 40 40 41
43 45 47 46 47 47 44 44 42 46 37 40 42 43 33 31 31 33 30 33 32 34 35 36 37 37 35 35 37 37 38 37 36 38 39 41 41 43 44 44 45 46 44 44
45 47 50 51 48 49 48 45 47 43 39 38 30 38 35 31 35 34 32 32 35 37 39 39 38 36 35 35 34 34 33 33 34 35 39 41 40 42 45 41 40 45 46 46
42 46 49 48 47 48 51 45 48 44 41 42 46 35 35 34 37 34 33 36 37 36 38 36 34 36 37 37 36 34 34 32 31 31 32 33 32 33 34 36 39 40 41 41
48 45 47 49 47 50 49 42 41 42 41 41 40 33 33 37 36 34 35 36 36 36 35 34 33 32 31 30 29 27 30 30 30 29 26 21 20 21 21 25 27 29 31 33
45 47 52 49 50 51 45 44 40 39 39 39 39 42 41 38 34 34 35 36 35 34 32 30 24 23 22 21 19 19 17 13 11 8 4 2 4 7 8 11 13 16 19 21
45 43 42 44 44 46 43 38 36 36 37 35 34 32 31 30 30 33 33 32 30 29 28 23 20 22 20 14 11 9 9 5 2 4 3 8 12 9 7 7 8 8 6 7
31 35 33 33 36 40 34 32 32 33 26 28 27 26 26 28 30 29 28 26 26 25 22 20 21 19 14 12 9 7 4 1 1 3 7 7 4 3 2 6 5 7 9 11
32 32 34 33 35 36 29 28 28 25 25 25 24 24 25 26 26 25 24 21 19 19 19 16 14 9 9 8 7 5 3 3 5 6 7 7 6 5 5 5 6 8 9 11
33 31 30 33 34 30 28 26 22 21 22 21 21 22 23 21 22 19 18 19 18 15 11 11 7 8 10 7 3 1 3 7 10 8 4 3 3 3 5 8 11 12 13 13
23 27 31 34 30 27 27 26 22 20 21 21 19 18 18 17 15 17 21 19 15 12 11 10 9 7 4 3 6 6 5 4 2 2 2 1 2 5 9 12 13 14 14 16
24 27 27 27 25 25 26 26 25 23 18 18 15 15 13 12 13 15 12 10 10 10 12 9 9 8 6 5 3 1 2 3 3 3 4 5 7 11 13 15 15 16 16 17
21 21 21 21 24 24 24 24 22 19 18 15 15 14 11 11 10 8 9 10 10 9 10 10 9 10 7 4 4 4 5 5 7 8 8 10 12 15 17 19 18 17 18 19

GFSCGP_500_spd_126.txt.gz
Wind_Speed
41 41 36 37 39 39 40 43 43 44 45 46 45 44 45 44 44 43 42 42 42 44 45 45 46 48 49 51 52 53 55 57 59 59 59 59 59 61 60 60 59 61 63 65
39 38 36 38 37 38 40 43 42 43 43 43 45 43 45 43 41 40 41 42 43 44 46 48 49 51 52 54 56 57 60 60 61 60 60 60 58 59 59 57 58 59 59 61
38 40 38 38 38 39 42 41 43 44 44 44 45 44 44 41 41 40 42 44 45 47 49 50 50 51 53 54 56 57 57 57 56 55 55 56 57 57 56 57 55 59 61 60
41 41 39 40 40 40 42 39 42 42 42 43 44 44 45 44 43 45 46 47 48 50 51 53 55 57 57 56 54 54 52 52 53 54 55 55 55 55 51 52 54 57 56 57
44 41 41 39 37 38 41 41 40 40 42 44 45 46 43 44 44 48 50 52 54 55 55 56 56 56 55 55 53 50 49 51 51 53 50 51 50 50 50 51 53 56 54 57
45 41 37 38 39 41 42 41 41 43 44 44 45 44 44 46 48 49 52 52 52 54 55 55 54 51 50 48 47 47 49 48 47 45 45 47 46 42 45 46 44 47 46 50
39 39 41 43 42 41 43 43 43 46 46 45 45 46 45 46 48 49 49 50 51 51 52 50 48 45 44 44 44 43 37 34 38 44 45 35 36 35 32 38 43 47 53 54
43 45 45 41 40 45 43 43 43 44 45 46 46 46 45 44 46 49 50 50 49 48 46 45 44 43 42 40 40 35 32 33 31 30 33 40 38 41 45 39 35 33 38 41
46 46 44 44 44 45 45 43 41 43 44 46 46 46 45 44 49 50 46 44 43 41 42 42 41 40 40 40 37 35 31 31 29 32 23 26 25 28 31 21 26 32 34 34
48 46 47 46 45 46 42 42 40 40 41 43 45 45 46 47 50 45 39 36 37 39 40 38 37 37 38 38 33 31 32 32 30 30 31 27 21 22 26 28 23 24 23 25
47 44 47 47 47 43 42 42 40 39 37 38 43 45 47 49 43 37 35 36 35 37 35 34 34 34 34 35 35 33 32 33 34 29 28 31 29 18 23 31 33 27 28 28
45 46 45 46 45 45 43 41 40 33 36 34 37 43 43 43 37 36 34 37 37 37 35 36 38 39 39 38 37 34 32 31 33 30 30 28 28 23 18 18 21 26 29 34
44 47 40 43 43 41 39 36 34 30 34 38 35 32 40 38 40 38 37 37 37 42 40 39 39 38 36 37 36 34 31 31 32 33 33 31 30 28 19 20 24 23 24 22
47 44 36 39 33 37 35 27 30 35 39 36 36 39 37 41 41 40 40 37 36 35 36 36 34 34 35 36 35 35 35 35 35 33 34 33 32 32 29 24 23 23 25 26
45 48 44 44 43 42 35 36 35 38 42 44 40 45 41 41 42 41 37 39 37 33 31 32 33 32 36 36 37 36 35 36 36 34 33 33 33 33 33 30 31 31 32 31
46 48 45 47 45 46 47 45 45 48 51 54 52 51 45 45 43 41 43 44 44 45 36 34 34 34 35 35 36 35 36 36 34 33 33 32 30 31 32 31 32 32 34 36
32 33 36 42 40 43 46 44 41 44 49 50 51 48 48 49 42 42 41 39 41 42 36 35 35 35 36 36 35 34 33 32 31 30 30 30 28 28 27 28 29 29 31 31
44 42 44 43 44 47 43 43 42 46 46 49 51 46 43 45 44 40 43 42 38 37 37 38 38 36 35 33 30 29 28 26 25 25 25 24 23 20 19 19 18 17 17 17
43 41 41 41 44 45 47 42 40 43 39 44 42 41 46 43 42 43 42 38 37 37 40 39 35 32 30 27 26 24 22 20 19 18 15 13 11 12 13 16 17 16 12 12
38 39 44 42 46 49 38 40 39 43 45 40 40 40 37 37 39 38 37 34 34 36 35 34 30 27 25 25 22 20 18 17 14 12 11 9 11 11 15 17 16 10 7 6
37 41 45 45 46 45 36 37 43 41 29 32 34 32 34 35 35 33 32 31 31 32 32 27 25 23 22 19 19 14 12 11 12 10 10 13 11 10 8 5 2 2 4 8
36 32 33 33 36 36 31 30 31 25 27 30 32 34 36 34 31 30 28 28 29 28 23 23 20 20 19 17 13 10 10 10 6 6 8 8 7 5 4 3 4 7 10 12
38 33 29 36 31 30 37 22 21 24 30 29 29 35 35 29 26 26 27 27 23 22 21 19 19 18 15 13 12 11 10 10 12 14 11 6 5 5 5 6 9 10 11 11
31 32 36 38 40 32 30 28 31 30 29 30 33 34 29 26 26 26 24 21 21 19 19 18 17 15 14 12 12 11 11 11 11 8 6 5 7 8 8 10 10 12 14 15
26 22 25 25 24 26 25 28 31 31 33 34 33 30 28 24 23 20 20 19 18 20 21 19 18 17 14 12 10 10 13 11 7 7 8 9 10 10 11 13 15 17 19 21
19 22 20 18 19 21 25 29 29 29 32 31 29 26 24 20 19 19 17 17 18 18 17 19 16 16 16 12 11 14 12 10 10 9 8 10 11 13 15 17 20 22 23 24